Location: Newark
(25.6108°S, 54.5803°W)
Time: 13:00:14
(UTC+00:00)

Courier 1B Rocket - Pass Details

Date: 01 November 2020
Orbit: 920 x 1202 km, 28.2° (Epoch: 01 December)

Event Time Altitude Azimuth Distance (km) Brightness Sun altitude
Rises 05:26:55 0° 327° (NNW) 4,085 - -39.6°
Reaches altitude 10° 05:30:25 10° 340° (NNW) 3,119 - -39.1°
Maximum altitude 05:36:22 24° 30° (NNE) 2,224 - -38.2°
Exits shadow 05:39:05 20° 59° (ENE) 2,422 7.1 -37.7°
Drops below altitude 10° 05:42:10 10° 80° (E) 3,043 7.9 -37.3°
Sets 05:45:30 0° 93° (E) 3,964 8.8 -36.7°
